Location: Unspecified
(22.2793°N, 0.0000°E)
Time: 04:31:13
(UTC+00:00)

Spot 3 - Visible Passes

Search period start: 04 April 2026 00:00
Search period end: 14 April 2026 00:00
Orbit: 812 x 838 km, 98.9° (Epoch: 29 March)

Date Brightness Start Highest point End Pass type
(mag) Time Alt. Az. Time Alt. Az. Time Alt. Az.
10 Apr 7.3 21:23:17 11° N 21:23:17 11° N 21:23:25 10° N visible
11 Apr 7.2 21:03:38 11° N 21:03:38 11° N 21:03:53 10° N visible
12 Apr 7.1 20:43:59 10° NNE 20:43:59 10° NNE 20:44:05 10° NNE visible
